Wind_Speed
19 20 21 21 23 25 27 28 29 31 32 33 34 34 34 35 35 36 36 36 36 36 37 37 37 38 38 38 38 38 38 38 37 38 39 40 40 40 40 40 40 41 41
19 20 21 23 25 27 28 30 31 32 34 35 35 35 36 36 36 37 37 37 37 37 38 38 38 39 39 39 39 39 39 39 39 38 40 41 41 41 41 41 41 41 41
20 21 22 25 27 28 30 32 34 35 36 37 37 37 38 38 38 37 37 37 37 37 38 38 38 38 38 39 39 39 39 39 39 39 40 41 42 43 42 41 42 41 41
21 22 24 26 28 30 33 35 36 37 38 39 39 39 39 39 39 38 37 37 36 36 37 37 37 37 38 38 38 38 39 39 39 39 39 40 42 43 44 43 43 42 41
23 24 25 27 30 32 34 36 37 38 39 40 41 41 41 40 39 38 37 36 36 36 36 36 36 36 37 37 37 38 38 38 39 39 39 40 41 42 44 45 44 44 43
24 25 27 29 31 33 35 37 39 40 41 42 42 42 41 40 38 37 36 35 35 35 35 35 35 35 36 36 37 38 39 39 39 40 40 41 42 43 44 45 44 44 43
26 27 29 31 33 35 37 39 40 42 43 43 43 43 41 40 38 37 36 35 35 35 35 35 35 35 35 35 36 37 38 39 40 41 41 41 42 43 44 45 45 44 44
27 29 30 33 35 37 39 41 42 43 45 45 44 43 41 40 38 37 36 35 35 35 34 34 34 34 34 35 35 36 37 38 39 41 41 41 43 45 45 45 46 45 45
29 31 32 34 37 39 40 42 44 45 45 46 44 43 41 39 38 37 36 36 35 34 34 33 33 33 34 35 35 35 36 37 39 40 41 41 43 44 45 45 46 46 46
32 33 34 37 39 41 43 44 46 46 46 45 44 43 40 39 38 37 36 36 35 34 33 33 33 33 33 34 34 35 35 37 37 38 39 41 42 43 44 45 46 46 46
35 35 37 39 41 42 44 46 47 47 46 46 44 42 40 39 38 37 37 36 35 34 33 33 33 33 32 32 33 33 34 35 36 37 38 39 41 43 44 45 46 47 47
37 37 38 40 42 44 45 47 47 47 46 45 43 41 40 38 37 36 36 36 35 34 33 32 31 31 30 30 31 31 32 33 34 35 36 37 39 41 43 45 46 47 47
38 39 40 41 43 45 46 47 48 48 47 45 43 41 40 39 37 36 35 35 34 33 32 31 30 29 28 27 28 28 28 29 30 31 32 34 36 38 41 43 46 47 47
40 41 42 44 45 45 46 48 48 48 46 44 42 41 40 39 38 37 35 34 33 32 31 30 29 27 26 26 26 26 26 26 26 27 28 31 33 36 38 40 43 46 46
42 44 45 45 45 45 47 48 48 47 45 44 42 41 40 39 38 36 35 33 32 31 29 28 26 26 25 24 24 23 22 22 23 23 25 27 31 33 35 37 40 43 45
45 46 46 46 46 47 48 48 47 46 44 43 41 40 39 38 36 34 33 32 31 29 28 27 26 25 24 23 22 21 20 20 20 21 23 25 27 30 33 35 37 39 42
47 47 48 47 47 48 48 48 46 45 44 42 41 39 38 37 35 34 32 31 30 29 27 26 25 24 23 21 20 19 18 18 18 19 21 23 26 28 31 34 36 38 39
48 48 48 48 48 48 48 48 46 44 43 42 40 39 37 35 34 32 31 30 29 28 26 25 24 23 22 20 19 18 17 16 16 17 19 21 24 27 29 32 34 35 37
49 48 48 48 49 49 49 48 46 44 43 41 39 38 36 34 33 31 30 29 28 27 25 24 23 22 21 20 18 17 16 15 15 15 16 19 21 24 27 30 31 33 35
49 49 49 49 49 49 48 47 46 44 42 40 38 37 35 34 32 30 29 28 26 25 24 23 22 21 20 19 18 16 15 14 14 13 14 17 19 21 24 27 29 30 32
50 51 51 50 50 49 48 47 45 43 42 40 37 35 34 33 31 30 28 27 25 24 23 22 21 21 20 19 17 16 15 14 13 12 13 15 18 21 23 26 28 29 31
52 51 51 51 50 49 48 46 44 43 40 38 36 34 33 31 30 28 27 25 24 24 23 22 21 20 19 18 16 15 14 13 13 13 13 15 16 19 22 25 26 27 29
52 52 52 51 50 49 47 45 43 41 38 36 34 33 31 30 29 27 25 24 24 24 23 22 20 19 19 18 16 14 13 13 13 14 14 15 17 18 20 23 25 27 28
54 53 52 51 50 48 45 43 41 38 36 34 33 31 30 28 26 25 24 23 23 22 21 21 20 19 18 17 15 13 12 12 13 13 14 15 16 18 20 22 24 25 27
53 52 50 49 47 44 42 40 37 35 32 31 31 29 27 26 25 23 22 22 21 20 19 19 18 17 16 15 14 13 12 11 11 12 13 15 16 16 18 21 23 24 26
51 50 48 46 43 41 38 36 34 32 30 29 28 27 25 23 22 21 20 20 19 18 17 17 17 16 16 15 14 13 12 11 11 12 13 13 15 16 17 19 21 23 25
Wind_Direction
330 328 328 328 328 327 327 325 323 322 321 319 317 314 311 308 305 302 299 296 292 289 286 283 280 278 275 273 271 268 265 262 258 255 254 252 251 248 247 245 243 241 239
329 328 327 327 326 326 326 325 325 323 322 321 318 316 313 311 307 304 301 298 294 290 286 283 280 278 275 273 271 268 266 263 259 255 253 252 250 248 246 245 243 241 239
327 326 326 326 327 326 326 326 325 324 323 322 320 318 316 313 310 307 303 300 296 292 288 284 281 278 276 273 271 268 266 263 260 256 253 252 249 247 245 243 242 241 239
326 325 326 327 327 327 327 326 326 325 324 323 321 319 318 315 312 309 305 302 299 294 290 286 282 279 276 274 271 268 266 263 260 257 254 251 249 246 244 242 241 240 238
324 324 324 325 327 327 328 328 327 326 325 324 323 321 319 316 314 310 307 304 301 297 293 288 284 280 277 274 272 268 266 263 260 257 254 251 248 245 243 241 240 239 238
321 321 323 324 326 327 328 328 328 327 326 325 324 322 320 317 314 311 309 306 302 298 294 290 286 282 279 276 273 269 266 264 260 257 254 251 248 245 242 240 239 238 237
318 319 320 322 325 326 327 327 328 328 327 325 324 323 320 318 315 313 311 308 304 300 296 292 288 284 280 278 274 271 268 264 261 257 254 251 248 244 241 238 236 235 234
316 317 318 321 324 326 327 327 327 327 327 326 325 323 321 319 316 314 312 310 307 302 298 294 290 286 283 280 277 272 269 265 261 256 252 249 246 243 240 237 235 234 233
315 316 317 320 323 326 327 327 328 327 327 327 325 324 322 319 317 316 314 311 308 305 301 297 293 289 285 282 278 274 269 265 261 257 252 248 245 242 239 236 234 232 231
316 316 317 319 322 324 326 327 327 327 327 327 326 324 322 319 318 317 315 313 310 307 304 300 296 292 288 283 280 275 270 266 261 257 253 248 244 240 237 234 233 231 230
315 315 316 319 320 322 324 326 327 327 327 327 326 324 321 319 318 318 316 314 312 309 306 302 299 295 290 285 281 277 272 267 262 258 253 247 243 239 236 233 231 229 228
313 314 316 318 319 321 323 325 326 326 326 326 325 323 321 320 319 318 317 315 314 312 309 305 302 298 294 289 284 279 274 269 264 257 252 247 241 238 235 231 229 227 226
313 314 315 317 318 320 322 323 324 325 325 325 324 323 322 320 319 319 318 317 316 314 312 309 305 302 298 294 290 284 277 272 265 257 250 244 239 235 233 230 228 227 225
312 313 314 315 316 318 320 322 324 324 324 324 324 323 322 321 320 319 319 318 317 316 314 311 308 305 301 299 295 288 281 274 265 255 248 242 236 233 231 229 227 225 224
311 312 312 314 315 316 319 322 323 324 323 323 323 322 321 320 320 319 319 319 318 318 317 315 311 307 305 302 298 293 285 275 265 255 248 242 236 233 231 229 227 226 224
309 309 311 313 314 316 318 321 322 322 322 322 322 322 321 320 319 318 319 318 318 318 318 317 314 311 308 304 301 297 288 278 267 256 248 241 235 232 229 227 226 225 224
310 310 311 313 313 315 317 319 320 320 320 320 321 320 320 319 318 317 318 318 317 317 318 317 315 313 311 307 302 298 291 282 270 259 249 240 233 230 228 226 225 224 223
307 308 310 311 311 314 316 317 318 318 318 319 319 319 318 318 317 317 317 317 316 316 317 316 315 313 312 309 304 299 293 283 272 262 248 238 232 229 227 224 222 221 221
306 307 309 310 311 312 314 315 316 316 316 316 316 316 317 317 316 316 315 317 317 317 317 316 314 312 311 308 304 299 292 284 272 261 246 235 229 226 223 220 219 219 219
304 306 308 308 309 309 311 312 313 313 314 314 314 314 315 315 315 315 314 315 316 317 316 315 315 313 311 306 302 298 291 283 273 258 244 233 226 221 219 218 218 217 217
303 304 305 305 306 306 307 308 309 310 311 311 311 311 312 312 312 312 313 313 314 315 314 313 313 313 311 307 301 296 289 279 267 256 244 234 225 221 218 218 217 217 217
301 302 302 303 303 304 304 305 306 306 306 308 308 308 308 309 309 310 311 310 311 311 312 311 310 311 311 308 304 296 286 278 265 253 244 236 229 223 219 217 217 217 216
299 299 299 300 300 301 301 301 302 302 303 304 304 305 305 306 307 307 307 308 309 310 310 310 308 309 309 308 305 296 284 274 265 255 245 237 231 227 220 217 217 217 215
297 297 297 297 297 298 298 298 298 299 299 300 301 302 303 303 305 305 305 306 308 308 309 309 307 306 307 307 304 297 286 275 264 253 245 238 232 229 223 219 217 215 215
295 295 295 295 295 295 295 295 295 296 296 297 298 300 301 301 302 303 303 305 308 309 309 309 307 304 303 302 300 296 285 273 261 251 243 238 232 227 221 217 215 214 215
293 293 293 293 292 292 293 292 291 291 291 293 295 296 298 298 299 301 302 304 307 308 309 312 311 306 302 298 294 291 283 273 260 247 240 235 230 224 217 213 212 212 213
Height
5836 5834 5831 5829 5826 5823 5819 5816 5811 5807 5802 5798 5793 5789 5785 5780 5776 5773 5769 5766 5763 5761 5758 5757 5755 5754 5754 5754 5754 5755 5756 5757 5760 5763 5765 5768 5771 5774 5778 5782 5786 5791 5795
5833 5831 5828 5825 5822 5819 5815 5810 5806 5801 5796 5791 5786 5781 5776 5772 5767 5763 5759 5755 5752 5750 5747 5745 5744 5743 5742 5742 5742 5743 5744 5745 5748 5751 5753 5756 5760 5763 5768 5772 5776 5781 5785
5830 5827 5825 5821 5818 5814 5809 5805 5800 5794 5789 5784 5778 5773 5768 5763 5758 5753 5749 5745 5741 5738 5736 5734 5732 5731 5730 5730 5729 5730 5731 5733 5735 5738 5741 5744 5748 5752 5756 5761 5765 5770 5775
5827 5824 5820 5817 5813 5809 5804 5799 5793 5787 5782 5776 5770 5764 5759 5753 5748 5743 5738 5734 5731 5727 5724 5722 5720 5719 5718 5717 5717 5718 5718 5720 5722 5725 5729 5732 5736 5740 5744 5749 5754 5759 5764
5823 5819 5816 5812 5808 5803 5798 5792 5786 5780 5774 5768 5762 5756 5749 5743 5738 5733 5728 5724 5720 5717 5713 5711 5709 5707 5706 5705 5705 5706 5706 5708 5710 5713 5716 5720 5724 5728 5732 5737 5743 5748 5753
5818 5815 5811 5807 5802 5797 5792 5786 5780 5773 5767 5760 5753 5747 5740 5734 5728 5723 5718 5714 5710 5706 5703 5700 5697 5696 5695 5694 5693 5693 5694 5696 5698 5700 5704 5707 5711 5715 5720 5725 5731 5737 5743
5813 5809 5805 5801 5796 5791 5785 5779 5772 5766 5759 5752 5745 5738 5731 5724 5719 5714 5709 5704 5700 5696 5693 5689 5687 5684 5683 5682 5681 5681 5682 5683 5685 5687 5691 5694 5698 5703 5707 5713 5719 5725 5732
5808 5804 5799 5795 5790 5784 5778 5771 5765 5758 5750 5743 5736 5729 5722 5715 5710 5705 5699 5695 5690 5686 5682 5679 5676 5673 5671 5670 5669 5669 5669 5670 5671 5674 5678 5681 5684 5689 5694 5700 5706 5713 5720
5801 5797 5793 5788 5782 5777 5770 5764 5757 5749 5742 5734 5727 5720 5713 5707 5701 5695 5690 5685 5681 5676 5672 5668 5665 5663 5661 5658 5657 5657 5657 5657 5657 5660 5664 5667 5671 5676 5681 5687 5694 5701 5708
5795 5790 5785 5780 5775 5769 5762 5755 5748 5741 5733 5726 5718 5711 5705 5698 5692 5687 5681 5676 5671 5667 5663 5659 5655 5652 5650 5647 5645 5644 5644 5644 5645 5647 5650 5654 5658 5663 5668 5675 5681 5688 5696
5788 5783 5778 5773 5767 5761 5754 5747 5740 5732 5725 5717 5710 5703 5696 5690 5684 5678 5672 5667 5662 5657 5653 5649 5645 5642 5638 5636 5634 5632 5631 5631 5632 5634 5637 5640 5644 5650 5656 5662 5669 5676 5684
5780 5775 5770 5765 5758 5752 5746 5738 5731 5724 5716 5709 5702 5695 5688 5682 5676 5670 5664 5659 5653 5648 5644 5639 5635 5632 5628 5625 5622 5620 5619 5619 5619 5621 5624 5627 5632 5637 5643 5650 5657 5664 5672
5772 5767 5762 5756 5750 5743 5737 5730 5722 5715 5708 5700 5693 5687 5680 5674 5668 5662 5656 5651 5645 5640 5635 5630 5626 5622 5619 5615 5613 5610 5608 5608 5608 5610 5612 5616 5620 5625 5631 5637 5645 5652 5660
5763 5758 5753 5747 5741 5735 5728 5721 5713 5706 5699 5691 5685 5678 5672 5666 5660 5654 5648 5643 5638 5633 5627 5622 5618 5614 5610 5607 5604 5601 5599 5598 5598 5600 5602 5606 5610 5615 5621 5627 5634 5641 5649
5754 5749 5743 5738 5732 5726 5719 5712 5705 5697 5690 5683 5677 5670 5664 5658 5652 5646 5641 5635 5630 5625 5620 5615 5611 5607 5603 5600 5596 5593 5591 5590 5591 5592 5594 5597 5601 5606 5612 5618 5624 5631 5639
5744 5738 5733 5727 5722 5716 5709 5703 5695 5689 5682 5675 5668 5662 5656 5650 5644 5639 5634 5628 5623 5618 5614 5609 5604 5600 5596 5593 5590 5587 5585 5584 5583 5584 5586 5589 5593 5598 5603 5609 5615 5621 5629
5733 5728 5723 5717 5711 5705 5699 5693 5687 5680 5673 5667 5661 5655 5649 5643 5638 5632 5627 5622 5617 5612 5607 5603 5599 5595 5591 5587 5584 5582 5579 5578 5577 5578 5579 5582 5586 5590 5595 5600 5606 5613 5620
5723 5718 5712 5707 5701 5695 5689 5683 5677 5671 5665 5659 5653 5647 5642 5636 5631 5626 5621 5616 5611 5606 5601 5597 5593 5589 5585 5582 5579 5577 5575 5573 5572 5572 5573 5576 5579 5583 5587 5592 5598 5605 5612
5712 5706 5701 5696 5690 5685 5679 5673 5668 5662 5656 5650 5645 5640 5634 5629 5624 5619 5614 5610 5605 5600 5596 5592 5587 5584 5581 5577 5575 5572 5570 5569 5568 5568 5569 5570 5573 5577 5581 5586 5592 5598 5605
5700 5695 5689 5684 5679 5674 5669 5663 5658 5652 5647 5642 5637 5632 5627 5622 5617 5613 5608 5604 5599 5595 5591 5587 5583 5579 5576 5573 5570 5568 5566 5565 5564 5564 5565 5567 5569 5572 5576 5581 5586 5592 5598
5688 5683 5678 5673 5668 5663 5658 5653 5648 5643 5638 5633 5628 5624 5619 5614 5610 5606 5602 5597 5593 5590 5586 5582 5578 5574 5571 5568 5566 5564 5562 5561 5561 5561 5562 5563 5565 5568 5572 5576 5581 5586 5592
5674 5670 5665 5660 5656 5651 5646 5642 5637 5633 5628 5624 5620 5616 5611 5607 5603 5599 5595 5591 5587 5584 5580 5577 5573 5570 5567 5564 5561 5559 5558 5557 5557 5557 5558 5560 5561 5564 5568 5572 5576 5581 5587
5660 5656 5652 5647 5643 5638 5634 5630 5626 5622 5618 5615 5611 5607 5603 5600 5596 5592 5589 5585 5582 5578 5575 5571 5568 5565 5562 5560 5557 5556 5554 5554 5554 5554 5555 5556 5558 5560 5564 5567 5572 5576 5582
5646 5642 5638 5633 5629 5625 5622 5618 5615 5612 5608 5605 5602 5599 5596 5592 5589 5586 5582 5579 5576 5573 5569 5566 5563 5561 5558 5556 5553 5552 5551 5550 5550 5550 5551 5552 5554 5557 5559 5563 5567 5572 5577
5630 5626 5623 5619 5616 5612 5609 5606 5604 5601 5599 5596 5593 5591 5588 5585 5582 5579 5577 5574 5571 5568 5565 5562 5559 5556 5554 5552 5550 5548 5547 5547 5546 5547 5547 5549 5551 5553 5555 5559 5563 5567 5572
5614 5611 5608 5605 5602 5600 5597 5595 5593 5591 5589 5588 5585 5583 5581 5579 5576 5574 5571 5569 5566 5563 5560 5557 5555 5552 5550 5548 5546 5544 5543 5543 5543 5543 5544 5546 5547 5549 5552 5555 5559 5563 5567